DW6927 Weather Reports


Display with metric or nautical units.
time (UTC)temp
F
wind
direction
speed
MPH
gust
MPH
rain 1hr
in
rain 24hr
in
rain mn
in
humidity
%
barometer
mb
20260510191619 77 333 0.0 3.0 0.00 0.00 0.00 50 1016.6
20260510191052 77 352 1.0 3.0 0.00 0.00 0.00 49 1016.6
20260510190555 76 288 0.0 2.0 0.00 0.00 0.00 55 1016.6
20260510190106 76 288 0.0 2.0 0.00 0.00 0.00 56 1016.7
20260510185552 76 231 0.0 2.0 0.00 0.00 0.00 55 1016.7
20260510185050 76 139 0.0 5.0 0.00 0.00 0.00 52 1016.8
20260510184559 76 259 0.0 5.0 0.00 0.00 0.00 49 1016.7
20260510184056 76 138 0.0 3.0 0.00 0.00 0.00 52 1016.8
20260510183553 76 238 0.0 3.0 0.00 0.00 0.00 52 1016.9
20260510183104 76 28 0.0 6.0 0.00 0.00 0.00 55 1016.8
20260510182553 76 5 1.0 6.0 0.00 0.00 0.00 54 1016.9
20260510182049 76 113 1.0 4.0 0.00 0.00 0.00 53 1016.8
20260510181554 77 96 1.0 4.0 0.00 0.00 0.00 55 1016.8
20260510181053 77 121 1.0 4.0 0.00 0.00 0.00 54 1016.8
20260510180553 77 0 1.0 3.0 0.00 0.00 0.00 57 1017.0
20260510180058 76 9 0.0 3.0 0.00 0.00 0.00 55 1017.0
20260510175556 76 238 1.0 7.0 0.00 0.00 0.00 58 1016.8
20260510175053 76 163 1.0 7.0 0.00 0.00 0.00 61 1016.9
20260510174606 75 105 2.0 6.0 0.00 0.00 0.00 56 1016.8
20260510174053 75 0 2.0 6.0 0.00 0.00 0.00 56 1017.1
20260510173552 76 161 2.0 6.0 0.00 0.00 0.00 52 1017.1
20260510173100 76 278 1.0 3.0 0.00 0.00 0.00 59 1017.3
20260510172552 76 0 0.0 3.0 0.00 0.00 0.00 60 1017.3
20260510172052 75 0 1.0 3.0 0.00 0.00 0.00 59 1017.4
20260510171551 75 0 0.0 2.0 0.00 0.00 0.00 61 1017.2
20260510171053 75 337 0.0 2.0 0.00 0.00 0.00 57 1017.5
20260510170552 75 336 0.0 2.0 0.00 0.00 0.00 59 1017.3
20260510170110 74 103 1.0 2.0 0.00 0.00 0.00 63 1017.4
20260510165553 74 281 1.0 2.0 0.00 0.00 0.00 62 1017.5
20260510165051 73 327 0.0 2.0 0.00 0.00 0.00 63 1017.4
20260510164609 73 5 0.0 3.0 0.00 0.00 0.00 63 1017.4
20260510164052 73 275 0.0 6.0 0.00 0.00 0.00 62 1017.4
20260510163553 73 302 2.0 6.0 0.00 0.00 0.00 60 1017.4
20260510163059 72 82 0.0 4.0 0.00 0.00 0.00 64 1017.5
20260510162552 72 96 1.0 4.0 0.00 0.00 0.00 61 1017.6
20260510162052 72 173 1.0 4.0 0.00 0.00 0.00 61 1017.5
20260510161552 72 244 1.0 5.0 0.00 0.00 0.00 63 1017.5
20260510161055 71 0 1.0 5.0 0.00 0.00 0.00 65 1017.7
20260510160555 72 149 1.0 7.0 0.00 0.00 0.00 65 1017.8
20260510160115 71 136 2.0 7.0 0.00 0.00 0.00 65 1017.7
20260510155554 71 345 1.0 3.0 0.00 0.00 0.00 69 1017.7
20260510155054 71 0 1.0 3.0 0.00 0.00 0.00 69 1017.7
20260510154605 70 0 1.0 5.0 0.00 0.00 0.00 73 1017.7
20260510154056 70 164 1.0 5.0 0.00 0.00 0.00 72 1017.8
20260510153555 70 140 2.0 5.0 0.00 0.00 0.00 72 1017.9
20260510153055 70 233 0.0 6.0 0.00 0.00 0.00 77 1017.8
20260510152554 69 0 1.0 7.0 0.00 0.00 0.00 77 1017.8
20260510152054 69 138 1.0 7.0 0.00 0.00 0.00 82 1017.8
20260510151554 68 0 0.0 3.0 0.00 0.00 0.00 85 1017.8
20260510151054 68 0 1.0 3.0 0.00 0.00 0.00 84 1017.7
20260510150555 67 301 1.0 2.0 0.00 0.00 0.00 86 1017.7
20260510150059 66 0 0.0 2.0 0.00 0.00 0.00 86 1017.9
20260510145554 66 0 0.0 2.0 0.00 0.00 0.00 88 1017.8
20260510145054 65 0 0.0 2.0 0.00 0.00 0.00 90 1017.9
20260510144615 65 281 1.0 4.0 0.00 0.00 0.00 90 1017.9
20260510144054 64 0 1.0 4.0 0.00 0.00 0.00 91 1017.8
20260510143554 64 0 0.0 0.0 0.00 0.00 0.00 94 1017.8
20260510143059 63 0 0.0 2.0 0.00 0.00 0.00 96 1017.8
20260510142554 63 0 0.0 2.0 0.00 0.00 0.00 96 1017.7
20260510142054 62 0 0.0 2.0 0.00 0.00 0.00 97 1017.8
20260510141558 61 103 0.0 2.0 0.00 0.00 0.00 97 1017.9
20260510141056 60 163 0.0 2.0 0.00 0.00 0.00 97 1017.7
20260510140556 59 107 0.0 3.0 0.00 0.00 0.00 97 1017.7
20260510140054 59 126 0.0 3.0 0.00 0.00 0.00 97 1017.7
20260510135556 59 88 0.0 3.0 0.00 0.00 0.00 97 1017.7
20260510135055 59 0 0.0 2.0 0.00 0.00 0.00 97 1017.9
20260510134555 59 0 0.0 2.0 0.00 0.00 0.00 97 1018.0
20260510134056 59 0 0.0 0.0 0.00 0.00 0.00 97 1017.8
20260510133554 58 0 0.0 2.0 0.00 0.00 0.00 97 1017.8
20260510133052 58 0 0.0 2.0 0.00 0.00 0.00 97 1017.7
20260510132554 58 0 0.0 2.0 0.00 0.00 0.00 97 1017.7
20260510132056 57 0 0.0 1.0 0.00 0.00 0.00 97 1017.8
20260510131555 57 0 0.0 1.0 0.00 0.00 0.00 97 1017.6
20260510131054 57 0 0.0 1.0 0.00 0.00 0.00 97 1017.5
20260510130554 56 0 0.0 3.0 0.00 0.00 0.00 97 1017.4
20260510130052 56 0 0.0 3.0 0.00 0.00 0.00 97 1017.5
20260510125553 56 86 0.0 0.0 0.00 0.00 0.00 97 1017.5
20260510125054 56 0 0.0 0.0 0.00 0.00 0.00 97 1017.5
20260510124612 55 0 0.0 0.0 0.00 0.00 0.00 97 1017.6
20260510124054 55 0 0.0 0.0 0.00 0.00 0.00 97 1017.4
20260510123554 55 0 0.0 0.0 0.00 0.00 0.00 97 1017.5
20260510123100 55 0 0.0 0.0 0.00 0.00 0.00 97 1017.6
20260510122554 55 0 0.0 0.0 0.00 0.00 0.00 97 1017.7
20260510122053 55 0 0.0 0.0 0.00 0.00 0.00 96 1017.4
20260510121554 54 0 0.0 0.0 0.00 0.00 0.00 96 1017.4
20260510121056 54 0 0.0 0.0 0.00 0.00 0.00 96 1017.4
20260510120555 54 0 0.0 0.0 0.00 0.00 0.00 96 1017.2
20260510120053 54 0 0.0 0.0 0.00 0.00 0.00 96 1017.3
20260510115554 54 0 0.0 0.0 0.00 0.00 0.00 96 1017.1
20260510115054 53 0 0.0 0.0 0.00 0.00 0.00 96 1017.1
20260510114558 53 0 0.0 0.0 0.00 0.00 0.00 96 1016.8
20260510114054 53 0 0.0 0.0 0.00 0.00 0.00 96 1016.7
20260510113555 53 0 0.0 0.0 0.00 0.00 0.00 96 1016.9
20260510113103 53 0 0.0 0.0 0.00 0.00 0.00 96 1016.7
20260510112554 53 0 0.0 0.0 0.00 0.00 0.00 96 1016.5
20260510112055 53 0 0.0 0.0 0.00 0.00 0.00 96 1016.6
20260510111555 53 0 0.0 0.0 0.00 0.00 0.00 96 1016.3
20260510111054 52 0 0.0 0.0 0.00 0.00 0.00 96 1016.2
20260510110557 52 0 0.0 0.0 0.00 0.00 0.00 95 1016.2
20260510110055 52 0 0.0 0.0 0.00 0.00 0.00 95 1016.1
20260510105554 52 0 0.0 0.0 0.00 0.00 0.00 95 1016.0
20260510105056 52 0 0.0 0.0 0.00 0.00 0.00 95 1016.0
20260510104603 52 0 0.0 0.0 0.00 0.00 0.00 95 1015.9
20260510104054 52 0 0.0 0.0 0.00 0.00 0.00 95 1015.9
20260510103555 52 0 0.0 0.0 0.00 0.00 0.00 95 1015.6
20260510103059 52 0 0.0 0.0 0.00 0.00 0.00 95 1015.7
20260510102554 52 0 0.0 0.0 0.00 0.00 0.00 95 1015.7
20260510102053 52 0 0.0 0.0 0.00 0.00 0.00 95 1015.7
20260510101558 52 0 0.0 0.0 0.00 0.00 0.00 95 1015.7
20260510101054 52 0 0.0 0.0 0.00 0.00 0.00 95 1015.4
20260510100557 52 0 0.0 0.0 0.00 0.00 0.00 95 1015.4
20260510100055 52 0 0.0 0.0 0.00 0.00 0.00 95 1015.4
20260510095554 52 0 0.0 0.0 0.00 0.00 0.00 95 1015.3
20260510095117 52 0 0.0 0.0 0.00 0.00 0.00 95 1015.4
20260510094605 52 0 0.0 0.0 0.00 0.00 0.00 95 1015.4
20260510094056 52 0 0.0 0.0 0.00 0.00 0.00 95 1015.4
20260510093552 52 0 0.0 0.0 0.00 0.00 0.00 94 1015.2
20260510093118 53 0 0.0 0.0 0.00 0.00 0.00 94 1015.3
20260510092552 53 0 0.0 0.0 0.00 0.00 0.00 94 1015.3
20260510092053 53 0 0.0 0.0 0.00 0.00 0.00 94 1015.2
20260510091550 53 0 0.0 0.0 0.00 0.00 0.00 94 1015.2
20260510091052 53 0 0.0 0.0 0.00 0.00 0.00 94 1015.0
20260510090552 53 0 0.0 0.0 0.00 0.00 0.00 94 1015.0
20260510090051 53 0 0.0 0.0 0.00 0.00 0.00 94 1014.9
20260510085554 53 0 0.0 0.0 0.00 0.00 0.00 94 1015.0
20260510085052 53 0 0.0 0.0 0.00 0.00 0.00 94 1014.9
20260510084554 54 0 0.0 0.0 0.00 0.00 0.00 94 1014.8
20260510084049 54 0 0.0 0.0 0.00 0.00 0.00 94 1014.7
20260510083549 54 0 0.0 0.0 0.00 0.00 0.00 94 1014.7
20260510083055 54 0 0.0 0.0 0.00 0.00 0.00 94 1014.6
20260510082549 54 0 0.0 0.0 0.00 0.00 0.00 94 1014.5
20260510082052 54 0 0.0 0.0 0.00 0.00 0.00 94 1014.4
20260510081551 54 0 0.0 0.0 0.00 0.00 0.00 94 1014.2
20260510081056 55 0 0.0 0.0 0.00 0.00 0.00 94 1014.3
20260510080553 55 0 0.0 0.0 0.00 0.00 0.00 94 1014.2
20260510080051 55 0 0.0 0.0 0.00 0.00 0.00 94 1014.1
20260510075553 55 0 0.0 0.0 0.00 0.00 0.00 94 1014.0
20260510075052 55 0 0.0 0.0 0.00 0.00 0.00 94 1014.2
20260510074556 55 0 0.0 0.0 0.00 0.00 0.00 94 1014.2
20260510074052 55 0 0.0 0.0 0.00 0.00 0.00 94 1014.0
20260510073551 56 0 0.0 0.0 0.00 0.00 0.00 94 1013.9
20260510073055 56 0 0.0 0.0 0.00 0.00 0.00 94 1014.0
20260510072552 56 0 0.0 0.0 0.00 0.00 0.00 94 1014.0
20260510072053 56 0 0.0 0.0 0.00 0.00 0.00 95 1014.0
20260510071556 56 0 0.0 0.0 0.00 0.00 0.00 95 1013.8
20260510071051 56 0 0.0 0.0 0.00 0.00 0.00 95 1013.8
20260510070554 56 0 0.0 0.0 0.00 0.00 0.00 95 1014.0
20260510070056 56 0 0.0 0.0 0.00 0.00 0.00 94 1013.9
20260510065553 56 0 0.0 0.0 0.00 0.00 0.00 94 1013.9
20260510065051 56 0 0.0 0.0 0.00 0.00 0.00 94 1013.9
20260510064556 57 0 0.0 0.0 0.00 0.00 0.00 94 1013.8
20260510064052 57 0 0.0 0.0 0.00 0.00 0.00 94 1013.8
20260510063608 57 0 0.0 0.0 0.00 0.00 0.00 94 1013.9
20260510063054 57 0 0.0 0.0 0.00 0.00 0.00 93 1013.8
20260510062557 57 0 0.0 0.0 0.00 0.00 0.00 93 1013.8
20260510062054 57 0 0.0 0.0 0.00 0.00 0.00 94 1013.8
20260510061553 57 0 0.0 0.0 0.00 0.00 0.00 94 1013.8
20260510061054 57 0 0.0 0.0 0.00 0.00 0.00 94 1013.9
20260510060554 57 0 0.0 0.0 0.00 0.00 0.00 94 1014.0
20260510060055 57 0 0.0 0.0 0.00 0.00 0.00 94 1014.0
20260510055554 57 0 0.0 0.0 0.00 0.00 0.00 93 1014.0
20260510055055 58 0 0.0 0.0 0.00 0.00 0.00 94 1014.0
20260510054555 58 0 0.0 0.0 0.00 0.00 0.00 94 1014.1
20260510054053 58 0 0.0 0.0 0.00 0.00 0.00 94 1014.1
20260510053553 58 0 0.0 0.0 0.00 0.00 0.00 94 1014.0
20260510053102 58 0 0.0 0.0 0.00 0.00 0.00 94 1014.1
20260510052553 58 0 0.0 0.0 0.00 0.00 0.00 93 1014.2
20260510052054 58 0 0.0 0.0 0.00 0.00 0.00 93 1014.1
20260510051605 58 0 0.0 0.0 0.00 0.00 0.00 93 1014.4
20260510051055 58 0 0.0 0.0 0.00 0.00 0.00 93 1014.5
20260510050557 58 0 0.0 0.0 0.00 0.00 0.00 93 1014.6
20260510050100 58 0 0.0 0.0 0.00 0.00 0.00 93 1014.5
20260510045554 58 0 0.0 0.0 0.00 0.00 0.00 93 1014.4
20260510045055 58 0 0.0 0.0 0.00 0.00 0.00 93 1014.4
20260510044558 59 0 0.0 0.0 0.00 0.00 0.00 92 1014.4
20260510044055 59 0 0.0 0.0 0.00 0.00 0.00 93 1014.3
20260510043554 59 0 0.0 0.0 0.00 0.00 0.00 92 1014.3
20260510043102 59 0 0.0 0.0 0.00 0.00 0.00 92 1014.3
20260510042554 59 0 0.0 0.0 0.00 0.00 0.00 92 1014.4
20260510042056 59 0 0.0 0.0 0.00 0.00 0.00 92 1014.5
20260510041556 59 0 0.0 0.0 0.00 0.00 0.00 92 1014.5
20260510041054 59 0 0.0 0.0 0.00 0.00 0.00 92 1014.3
20260510040554 59 0 0.0 0.0 0.00 0.00 0.00 92 1014.2
20260510040056 59 0 0.0 0.0 0.00 0.00 0.00 92 1014.4
20260510035555 59 0 0.0 0.0 0.00 0.00 0.00 91 1014.2
20260510035057 59 0 0.0 0.0 0.00 0.00 0.00 91 1014.3
20260510034600 59 0 0.0 0.0 0.00 0.00 0.00 91 1014.2
20260510034055 60 0 0.0 0.0 0.00 0.00 0.00 91 1014.1
20260510033554 60 0 0.0 0.0 0.00 0.00 0.00 91 1014.0
20260510033104 60 0 0.0 0.0 0.00 0.00 0.00 91 1014.1
20260510032550 60 0 0.0 0.0 0.00 0.00 0.00 91 1014.0
20260510032050 60 0 0.0 0.0 0.00 0.00 0.00 91 1013.9
20260510031554 60 0 0.0 0.0 0.00 0.00 0.00 91 1013.9
20260510031054 60 0 0.0 0.0 0.00 0.00 0.00 91 1013.8
20260510030553 60 0 0.0 0.0 0.00 0.00 0.00 90 1013.8
20260510025553 60 0 0.0 0.0 0.00 0.00 0.00 90 1013.8
20260510025055 60 0 0.0 0.0 0.00 0.00 0.00 90 1013.8
20260510024557 60 0 0.0 0.0 0.00 0.00 0.00 89 1013.8
20260510024055 61 0 0.0 0.0 0.00 0.00 0.00 90 1013.6
20260510023551 61 0 0.0 0.0 0.00 0.00 0.00 89 1013.6
20260510023053 61 0 0.0 0.0 0.00 0.00 0.00 89 1013.5
20260510022553 61 0 0.0 0.0 0.00 0.00 0.00 89 1013.5
20260510022054 61 0 0.0 0.0 0.00 0.00 0.00 88 1013.6
20260510021553 61 0 0.0 0.0 0.00 0.00 0.00 88 1013.5
20260510021053 61 0 0.0 0.0 0.00 0.00 0.00 88 1013.4
20260510020555 61 0 0.0 0.0 0.00 0.00 0.00 88 1013.6
20260510020058 61 0 0.0 2.0 0.00 0.00 0.00 88 1013.5
20260510015555 62 0 0.0 2.0 0.00 0.00 0.00 87 1013.3
20260510015054 62 0 0.0 2.0 0.00 0.00 0.00 87 1013.2
20260510014557 62 0 0.0 1.0 0.00 0.00 0.00 87 1013.1
20260510014053 62 0 0.0 1.0 0.00 0.00 0.00 87 1013.1
20260510013554 62 0 0.0 2.0 0.00 0.00 0.00 87 1013.0
20260510013053 62 0 0.0 2.0 0.00 0.00 0.00 87 1013.1
20260510012555 62 0 0.0 2.0 0.00 0.00 0.00 87 1013.1
20260510012053 62 0 0.0 2.0 0.00 0.00 0.00 87 1013.0
20260510011553 63 0 0.0 2.0 0.00 0.00 0.00 86 1012.8
20260510011053 63 0 0.0 1.0 0.00 0.00 0.00 85 1012.8
20260510010554 63 0 0.0 0.0 0.00 0.00 0.00 84 1012.9
20260510010052 63 0 0.0 0.0 0.00 0.00 0.00 84 1012.8
20260510005555 63 0 0.0 0.0 0.00 0.00 0.00 84 1012.5
20260510005054 64 0 0.0 1.0 0.00 0.00 0.00 84 1012.3
20260510004600 64 0 0.0 1.0 0.00 0.00 0.00 83 1012.4
20260510004053 64 0 0.0 1.0 0.00 0.00 0.00 83 1012.1
20260510003554 64 0 0.0 1.0 0.00 0.00 0.00 83 1012.1
20260510003056 65 0 0.0 1.0 0.00 0.00 0.00 83 1012.0
20260510002553 65 0 0.0 1.0 0.00 0.00 0.00 82 1012.0
20260510002053 65 0 0.0 2.0 0.00 0.00 0.00 82 1011.8
20260510001557 66 0 0.0 2.0 0.00 0.00 0.00 82 1011.9
20260510001051 66 0 0.0 2.0 0.00 0.00 0.00 81 1012.0
20260510000554 66 0 0.0 1.0 0.00 0.00 0.00 81 1012.0
20260510000059 66 0 0.0 2.0 0.00 0.00 0.00 80 1011.9
20260509235553 67 0 0.0 2.0 0.00 0.00 0.00 80 1011.8
20260509235050 67 0 0.0 1.0 0.00 0.00 0.00 80 1011.9
20260509234554 67 0 0.0 2.0 0.00 0.00 0.00 80 1011.8
20260509234054 67 0 0.0 2.0 0.00 0.00 0.00 80 1011.6
20260509233554 67 0 0.0 2.0 0.00 0.00 0.00 79 1011.7
20260509233051 68 0 0.0 1.0 0.00 0.00 0.00 80 1011.7
20260509232554 68 0 0.0 1.0 0.00 0.00 0.00 79 1011.7
20260509232052 68 0 0.0 2.0 0.00 0.00 0.00 79 1011.5
20260509231553 68 0 0.0 3.0 0.00 0.00 0.00 79 1011.4
20260509231054 68 86 0.0 3.0 0.00 0.00 0.00 78 1011.4
20260509230557 68 0 0.0 3.0 0.00 0.00 0.00 77 1011.4
20260509230055 68 18 1.0 3.0 0.00 0.00 0.00 76 1011.4
20260509225554 68 32 0.0 1.0 0.00 0.00 0.00 77 1011.5
20260509225054 68 0 0.0 1.0 0.00 0.00 0.00 76 1011.3
20260509224557 68 0 0.0 1.0 0.00 0.00 0.00 76 1011.2
20260509224054 68 0 0.0 0.0 0.00 0.00 0.00 75 1011.3
20260509223556 68 0 0.0 1.0 0.00 0.00 0.00 75 1011.2
20260509223056 68 0 0.0 1.0 0.00 0.00 0.00 75 1011.3
20260509222553 69 28 0.0 1.0 0.00 0.00 0.00 75 1011.1
20260509222053 69 0 0.0 2.0 0.00 0.00 0.00 76 1011.1
20260509221554 69 28 0.0 2.0 0.00 0.00 0.00 75 1011.0
20260509221054 69 0 0.0 2.0 0.00 0.00 0.00 76 1011.2
20260509220552 69 0 0.0 1.0 0.00 0.00 0.00 78 1011.2
20260509220056 69 51 0.0 1.0 0.00 0.00 0.00 75 1011.2
20260509215554 69 49 0.0 2.0 0.00 0.00 0.00 76 1011.1
20260509215054 69 73 0.0 2.0 0.00 0.00 0.00 75 1011.1
20260509214610 69 0 0.0 2.0 0.00 0.00 0.00 74 1011.1
20260509214053 69 0 0.0 4.0 0.00 0.00 0.00 73 1011.2
20260509213553 69 319 0.0 4.0 0.00 0.00 0.00 74 1011.1
20260509213053 70 0 0.0 3.0 0.00 0.00 0.00 75 1011.0
20260509212554 70 0 0.0 3.0 0.00 0.00 0.00 73 1010.9
20260509212053 70 32 0.0 3.0 0.00 0.00 0.00 73 1011.1
20260509211551 70 0 0.0 0.0 0.00 0.00 0.00 74 1011.2
20260509211053 70 0 0.0 0.0 0.00 0.00 0.00 74 1010.9
20260509210615 70 0 0.0 0.0 0.00 0.00 0.00 72 1010.8
20260509210058 70 0 0.0 0.0 0.00 0.00 0.00 71 1010.7
20260509205553 70 0 0.0 0.0 0.00 0.00 0.00 71 1010.6
20260509205053 71 0 0.0 0.0 0.00 0.00 0.00 71 1010.6
20260509204554 71 0 0.0 0.0 0.00 0.00 0.00 71 1010.6
20260509204050 71 0 0.0 2.0 0.00 0.00 0.00 72 1010.3
20260509203551 71 0 0.0 2.0 0.00 0.00 0.00 71 1010.5
20260509203101 71 0 0.0 2.0 0.00 0.00 0.00 71 1010.4
20260509202550 70 243 0.0 4.0 0.00 0.00 0.00 69 1010.4
20260509202053 70 212 0.0 4.0 0.00 0.00 0.00 70 1010.3
20260509201556 70 207 0.0 4.0 0.00 0.00 0.00 70 1010.6
20260509201053 70 149 0.0 2.0 0.00 0.00 0.00 68 1010.7
20260509200553 70 0 0.0 4.0 0.00 0.00 0.00 69 1010.6
20260509200056 70 0 0.0 4.0 0.00 0.00 0.00 66 1010.6
20260509195554 70 0 0.0 0.0 0.00 0.00 0.00 68 1010.7
20260509195053 71 0 0.0 0.0 0.00 0.00 0.00 70 1010.6
20260509194554 71 0 0.0 0.0 0.00 0.00 0.00 67 1010.7
20260509194053 71 0 0.0 1.0 0.00 0.00 0.00 68 1010.8
20260509193553 70 0 0.0 3.0 0.00 0.00 0.00 67 1010.6
20260509193059 70 0 0.0 3.0 0.00 0.00 0.00 67 1010.7
20260509192557 70 0 0.0 3.0 0.00 0.00 0.00 68 1010.7
20260509192053 70 0 0.0 0.0 0.00 0.00 0.00 68 1010.9